Regional Weather Roundup
Issued by NWS

Home | Current Version | Previous Version | Graphics & Text | Print | Product List | Glossary On
Versions: 1 2 3 4 5 6 7 8 9 10 11 12 13 14 15 16 17 18 19 20 21 22 23 24 25 26 27 28
000
ASUS45 KCYS 230410
RWRWY

WYOMING REGIONAL WEATHER ROUNDUP
NATIONAL WEATHER SERVICE CHEYENNE WY
1000 PM MDT MON MAY 22 2017

NOTE:  "FAIR" INDICATES FEW OR NO CLOUDS BELOW 12,000 FEET
WITH NO SIGNIFICANT WEATHER AND/OR OBSTRUCTIONS TO VISIBILITY.

WYZ001-230500-
YELLOWSTONE NATIONAL PARK

CITY           SKY/WX    TMP DP  RH WIND       PRES   REMARKS
LK YELLOWSTONE   N/A     35  31  85 VRB5      30.38S WCI  31
W YELLOWSTONE  NOT AVBL

$$
WYZ002>013-054>058-071-098>099-230500-
NORTHERN WYOMING

CITY           SKY/WX    TMP DP  RH WIND       PRES   REMARKS
JACKSON        MOCLDY    48  34  57 W8        30.31R
CODY           FAIR      51  35  54 NW8G16    30.28R
GREYBULL       FAIR      50  40  68 NW12      30.22R
WORLAND        MOCLDY    50  38  63 NW6       30.23S
SHERIDAN       FAIR      47  39  74 W13       30.22R
BUFFALO        FAIR      49  35  58 NW9       30.24R
GILLETTE       CLOUDY    46  42  86 E3        30.21R
HULETT         FAIR      45  37  76 CALM      30.21R
NEWCASTLE      FAIR      43  36  75 NW6       30.20R

$$
WYZ014>020-022>026-101>103-230500-
CENTRAL WYOMING

CITY           SKY/WX    TMP DP  RH WIND       PRES   REMARKS
BIG PINEY      CLOUDY    47  34  60 N7        30.32R
PINEDALE       FAIR      43  30  61 W9        30.32R
DUBOIS         FAIR      34  32  93 CALM      30.33R
LANDER         FAIR      43  34  70 W10       30.29R
RIVERTON       FAIR      43  36  76 NW12      30.29R
CASPER         CLOUDY    41  38  89 W6        30.27R
DOUGLAS        MOCLDY    42  37  82 N8        30.26R

$$
WYZ021-027>030-104>119-230500-
SOUTHERN WYOMING

CITY           SKY/WX    TMP DP  RH WIND       PRES   REMARKS
EVANSTON       CLOUDY    53  41  63 NW8       30.29R
KEMMERER         N/A     45  32  61 SE7G20    30.34R
FORT BRIDGER   CLOUDY    46  36  66 SE17      30.35R
ROCK SPRINGS   MOCLDY    40  36  86 SE8       30.34R WCI  34
DIXON            N/A     42  34  75 W9        30.34R
RAWLINS        CLOUDY    40  35  83 NW3       30.33R
SARATOGA       CLOUDY    36  36 100 CALM      30.32R
LARAMIE        CLOUDY    37  32  82 NW13      30.27R WCI  29
CHEYENNE       CLOUDY    40  33  76 N14       30.24R WCI  32
TORRINGTON     FAIR      43  36  76 NW9       30.18R
PINE BLUFFS    FAIR      37  36  93 W5        30.23  WCI  34

$$




USA.gov is the U.S. government's official web portal to all federal, state and local government web resources and services.